星链-31462 (STARLINK-31462 )

导读

STARLINK-31462是美国SpaceX星链互联网星座的一员,于2024年4月10日成功发射入轨。它延续了星链卫星的标准设计,依托SpaceX可重复使用火箭降低发射成本,服务全球高速低延迟互联网接入,重点支持偏远地区覆盖、航空航海移动网络服务,进一步扩充了星链低轨卫星星座的服务容量。

Basic Information
目录编号:
59466
目录名称:
STARLINK-31462
国际标识:
2024-068M
轨道中心:
EARTH
卫星名称:
星链-31462
卫星全名:
星链-31462 (STARLINK-31462 )
卫星状态:
在轨 (已飞行795 天)
发射日期:
2024-04-10 UTC
国别 :
美国 (US)
星等 :
--
Orbit Information
数据来源 国际轨道数据 AOE轨道数据
星历时间 2026-06-13T17:58:34+0800
1天前
查看轨道信息
2026-06-12T07:00:00+0800
2天前
查看轨道信息
半长轴 6861.123km 6861.193km
偏心率 0.0002099 0.0002445
轨道倾角 42.996° 43.008°
近地点辐角 274.685° 306.634°
升交点赤经 213.814° 222.057°
平近点角 85.376° 309.617°
近地点 481.545km 481.378km
远地点 484.427km 484.734km
周期 94.265分钟 94.267分钟
每日圈数 15.276013 15.275779
Detailed Information
固有亮度:
5
最大亮度:
1.5
卫星平台:
Starlink v2.0 mini
覆盖范围:
全球
运营商:
太空探索技术公司
运营商所在国:
美国
制造商(研发单位):
太空探索技术公司
制造商所在国:
美国
使用方式:
暂无
Satellite Introduction
星链(Starlink)计划是由太空探索技术公司(SpaceX)提出的一个巨型低轨卫星互联网星座项目,计划在2019年至2024年间在太空搭建由约1.2万颗卫星组成的“星链”网络,其中1584颗将部署在地球上空550千米处的近地轨道,并从2020年开始工作。该卫星仍在工作。
2D Orbit Map
3D Orbit Map
Orbit Altitude Analysis Chart
Orbit Inclination Analysis Chart
Orbit Comprehensive Analysis Chart
View Comprehensive Chart